| time (UTC) | temp F | wind direction | speed MPH | gust MPH | rain 1hr in | rain 24hr in | rain mn in | humidity % | barometer mb |
| 20260901190405 | 73 | 85 | 6.0 | 12.0 | 0.00 | 0.10 | 0.00 | 77 | 1025.5 |
| 20260901185905 | 73 | 69 | 5.0 | 14.0 | 0.00 | 0.11 | 0.00 | 77 | 1025.5 |
| 20260901185405 | 73 | 98 | 6.0 | 13.0 | 0.00 | 0.12 | 0.00 | 77 | 1025.5 |
| 20260901184904 | 73 | 84 | 6.0 | 12.0 | 0.00 | 0.15 | 0.00 | 77 | 1025.5 |
| 20260901184404 | 73 | 74 | 4.0 | 12.0 | 0.00 | 0.15 | 0.00 | 78 | 1025.5 |
| 20260901183904 | 73 | 49 | 7.0 | 13.0 | 0.00 | 0.15 | 0.00 | 78 | 1025.5 |
| 20260901183405 | 73 | 88 | 5.0 | 10.0 | 0.00 | 0.15 | 0.00 | 77 | 1025.5 |
| 20260901182905 | 72 | 74 | 6.0 | 15.0 | 0.00 | 0.17 | 0.00 | 77 | 1025.5 |
| 20260901182405 | 72 | 73 | 6.0 | 12.0 | 0.00 | 0.17 | 0.00 | 77 | 1025.4 |
| 20260901181904 | 72 | 102 | 4.0 | 12.0 | 0.00 | 0.17 | 0.00 | 77 | 1025.6 |
| 20260901181405 | 72 | 98 | 7.0 | 12.0 | 0.00 | 0.17 | 0.00 | 77 | 1025.5 |
| 20260901180905 | 72 | 97 | 5.0 | 10.0 | 0.00 | 0.17 | 0.00 | 77 | 1025.6 |
| 20260901180404 | 72 | 93 | 6.0 | 15.0 | 0.00 | 0.17 | 0.00 | 77 | 1025.5 |
| 20260901175904 | 73 | 108 | 5.0 | 13.0 | 0.00 | 0.17 | 0.00 | 77 | 1025.5 |
| 20260901175404 | 72 | 86 | 6.0 | 12.0 | 0.00 | 0.17 | 0.00 | 76 | 1025.5 |
| 20260901174904 | 73 | 88 | 6.0 | 14.0 | 0.00 | 0.17 | 0.00 | 77 | 1025.4 |
| 20260901174405 | 73 | 81 | 7.0 | 13.0 | 0.00 | 0.17 | 0.00 | 77 | 1025.5 |
| 20260901173904 | 73 | 73 | 7.0 | 12.0 | 0.00 | 0.17 | 0.00 | 77 | 1025.5 |
| 20260901173404 | 73 | 80 | 8.0 | 16.0 | 0.00 | 0.17 | 0.00 | 77 | 1025.4 |
| 20260901172904 | 73 | 80 | 5.0 | 12.0 | 0.00 | 0.17 | 0.00 | 78 | 1025.4 |
| 20260901172404 | 73 | 88 | 5.0 | 12.0 | 0.00 | 0.17 | 0.00 | 78 | 1025.3 |
| 20260901171904 | 73 | 78 | 5.0 | 12.0 | 0.00 | 0.17 | 0.00 | 77 | 1025.2 |
| 20260901171405 | 73 | 82 | 3.0 | 10.0 | 0.00 | 0.17 | 0.00 | 76 | 1025.2 |
| 20260901170904 | 72 | 116 | 3.0 | 12.0 | 0.00 | 0.17 | 0.00 | 76 | 1025.2 |
| 20260901170405 | 73 | 93 | 5.0 | 12.0 | 0.00 | 0.17 | 0.00 | 76 | 1025.1 |
| 20260901165904 | 73 | 81 | 6.0 | 12.0 | 0.00 | 0.17 | 0.00 | 76 | 1025.1 |
| 20260901165405 | 73 | 77 | 6.0 | 12.0 | 0.00 | 0.17 | 0.00 | 76 | 1025.0 |
| 20260901164905 | 73 | 105 | 5.0 | 12.0 | 0.00 | 0.17 | 0.00 | 77 | 1025.0 |
| 20260901164405 | 73 | 96 | 6.0 | 13.0 | 0.00 | 0.17 | 0.00 | 77 | 1024.9 |
| 20260901163904 | 73 | 87 | 6.0 | 14.0 | 0.00 | 0.17 | 0.00 | 77 | 1024.9 |
| 20260901163405 | 73 | 95 | 7.0 | 14.0 | 0.00 | 0.17 | 0.00 | 77 | 1024.9 |
| 20260901162904 | 73 | 83 | 6.0 | 12.0 | 0.00 | 0.17 | 0.00 | 76 | 1024.9 |
| 20260901162404 | 73 | 63 | 5.0 | 14.0 | 0.00 | 0.17 | 0.00 | 75 | 1024.8 |
| 20260901161904 | 73 | 88 | 6.0 | 12.0 | 0.00 | 0.17 | 0.00 | 76 | 1024.8 |
| 20260901161405 | 73 | 77 | 5.0 | 12.0 | 0.00 | 0.17 | 0.00 | 76 | 1024.7 |
| 20260901160404 | 73 | 85 | 7.0 | 13.0 | 0.00 | 0.17 | 0.00 | 76 | 1024.7 |
| 20260901155904 | 73 | 91 | 3.0 | 12.0 | 0.00 | 0.17 | 0.00 | 76 | 1024.7 |
| 20260901155404 | 73 | 103 | 7.0 | 12.0 | 0.00 | 0.17 | 0.00 | 76 | 1024.7 |
| 20260901154904 | 73 | 99 | 6.0 | 12.0 | 0.00 | 0.17 | 0.00 | 76 | 1024.7 |
| 20260901154404 | 73 | 83 | 4.0 | 9.0 | 0.00 | 0.17 | 0.00 | 76 | 1024.7 |
| 20260901153904 | 73 | 90 | 5.0 | 12.0 | 0.00 | 0.17 | 0.00 | 76 | 1024.6 |
| 20260901153404 | 73 | 104 | 6.0 | 12.0 | 0.00 | 0.17 | 0.00 | 76 | 1024.6 |
| 20260901152905 | 73 | 73 | 4.0 | 12.0 | 0.00 | 0.17 | 0.00 | 76 | 1024.6 |
| 20260901152404 | 73 | 81 | 5.0 | 13.0 | 0.00 | 0.17 | 0.00 | 76 | 1024.5 |
| 20260901151904 | 73 | 103 | 5.0 | 12.0 | 0.00 | 0.17 | 0.00 | 76 | 1024.5 |
| 20260901151405 | 73 | 73 | 6.0 | 13.0 | 0.00 | 0.17 | 0.00 | 76 | 1024.4 |
| 20260901150904 | 73 | 87 | 7.0 | 13.0 | 0.00 | 0.17 | 0.00 | 76 | 1024.4 |
| 20260901150405 | 73 | 92 | 7.0 | 14.0 | 0.00 | 0.17 | 0.00 | 76 | 1024.4 |
| 20260901145405 | 73 | 99 | 6.0 | 15.0 | 0.00 | 0.17 | 0.00 | 77 | 1024.2 |
| 20260901144904 | 73 | 84 | 6.0 | 14.0 | 0.00 | 0.17 | 0.00 | 77 | 1024.1 |
| 20260901144404 | 73 | 117 | 6.0 | 12.0 | 0.00 | 0.17 | 0.00 | 77 | 1024.1 |
| 20260901143904 | 73 | 102 | 6.0 | 12.0 | 0.00 | 0.17 | 0.00 | 77 | 1024.1 |
| 20260901143404 | 73 | 92 | 7.0 | 14.0 | 0.00 | 0.17 | 0.00 | 77 | 1024.1 |
| 20260901142904 | 73 | 109 | 6.0 | 14.0 | 0.00 | 0.17 | 0.00 | 77 | 1024.1 |
| 20260901142404 | 73 | 100 | 7.0 | 13.0 | 0.00 | 0.17 | 0.00 | 77 | 1024.1 |
| 20260901141405 | 73 | 108 | 6.0 | 15.0 | 0.00 | 0.17 | 0.00 | 77 | 1024.1 |
| 20260901140904 | 73 | 101 | 5.0 | 15.0 | 0.00 | 0.17 | 0.00 | 77 | 1024.0 |
| 20260901140405 | 73 | 94 | 7.0 | 12.0 | 0.00 | 0.17 | 0.00 | 77 | 1024.0 |
| 20260901135905 | 74 | 106 | 5.0 | 13.0 | 0.00 | 0.17 | 0.00 | 77 | 1023.9 |
| 20260901135404 | 74 | 82 | 9.0 | 16.0 | 0.00 | 0.17 | 0.00 | 77 | 1023.9 |
| 20260901134405 | 74 | 99 | 7.0 | 18.0 | 0.00 | 0.17 | 0.00 | 76 | 1023.8 |
| 20260901133904 | 74 | 93 | 7.0 | 18.0 | 0.00 | 0.17 | 0.00 | 76 | 1023.8 |
| 20260901133404 | 75 | 109 | 7.0 | 20.0 | 0.00 | 0.17 | 0.00 | 75 | 1023.8 |
| 20260901132404 | 75 | 106 | 7.0 | 13.0 | 0.00 | 0.17 | 0.00 | 75 | 1023.7 |
| 20260901131905 | 75 | 108 | 6.0 | 14.0 | 0.00 | 0.17 | 0.00 | 74 | 1023.7 |
| 20260901131405 | 75 | 73 | 6.0 | 14.0 | 0.00 | 0.17 | 0.00 | 75 | 1023.6 |
| 20260901130904 | 75 | 90 | 6.0 | 13.0 | 0.00 | 0.17 | 0.00 | 75 | 1023.6 |
| 20260901130405 | 75 | 92 | 7.0 | 17.0 | 0.00 | 0.17 | 0.00 | 75 | 1023.5 |
| 20260901125905 | 75 | 75 | 6.0 | 15.0 | 0.00 | 0.17 | 0.00 | 75 | 1023.6 |
| 20260901125405 | 75 | 76 | 7.0 | 12.0 | 0.00 | 0.17 | 0.00 | 75 | 1023.5 |
| 20260901124405 | 75 | 100 | 7.0 | 18.0 | 0.00 | 0.17 | 0.00 | 75 | 1023.4 |
| 20260901123404 | 75 | 93 | 7.0 | 15.0 | 0.00 | 0.17 | 0.00 | 76 | 1023.5 |
| 20260901122904 | 75 | 89 | 7.0 | 18.0 | 0.00 | 0.17 | 0.00 | 76 | 1023.4 |
| 20260901122405 | 75 | 75 | 9.0 | 16.0 | 0.00 | 0.17 | 0.00 | 76 | 1023.5 |
| 20260901121904 | 75 | 85 | 8.0 | 16.0 | 0.00 | 0.17 | 0.00 | 76 | 1023.4 |
| 20260901121405 | 76 | 73 | 9.0 | 16.0 | 0.00 | 0.17 | 0.00 | 76 | 1023.4 |
| 20260901120905 | 76 | 79 | 7.0 | 14.0 | 0.00 | 0.17 | 0.00 | 73 | 1023.5 |
| 20260901120405 | 76 | 81 | 6.0 | 18.0 | 0.00 | 0.17 | 0.00 | 71 | 1023.4 |
| 20260901115904 | 77 | 95 | 8.0 | 17.0 | 0.00 | 0.17 | 0.00 | 69 | 1023.4 |
| 20260901114904 | 77 | 68 | 9.0 | 16.0 | 0.00 | 0.17 | 0.00 | 72 | 1023.4 |
| 20260901113905 | 76 | 82 | 9.0 | 14.0 | 0.00 | 0.17 | 0.00 | 74 | 1023.4 |
| 20260901113404 | 77 | 72 | 10.0 | 17.0 | 0.00 | 0.17 | 0.00 | 73 | 1023.4 |
| 20260901112904 | 77 | 71 | 8.0 | 14.0 | 0.00 | 0.17 | 0.00 | 74 | 1023.4 |
| 20260901112405 | 76 | 102 | 7.0 | 15.0 | 0.00 | 0.17 | 0.00 | 74 | 1023.5 |
| 20260901111904 | 76 | 82 | 8.0 | 16.0 | 0.00 | 0.17 | 0.00 | 74 | 1023.4 |
| 20260901111404 | 76 | 80 | 7.0 | 15.0 | 0.00 | 0.17 | 0.00 | 72 | 1023.5 |
| 20260901110904 | 77 | 87 | 8.0 | 18.0 | 0.00 | 0.17 | 0.00 | 72 | 1023.4 |
| 20260901110404 | 77 | 92 | 11.0 | 17.0 | 0.00 | 0.17 | 0.00 | 71 | 1023.4 |
| 20260901105904 | 77 | 117 | 7.0 | 16.0 | 0.00 | 0.17 | 0.00 | 72 | 1023.5 |
| 20260901105405 | 77 | 80 | 10.0 | 16.0 | 0.00 | 0.17 | 0.00 | 71 | 1023.5 |
| 20260901104906 | 78 | 75 | 10.0 | 20.0 | 0.00 | 0.17 | 0.00 | 70 | 1023.6 |
| 20260901104404 | 77 | 102 | 8.0 | 13.0 | 0.00 | 0.17 | 0.00 | 70 | 1023.5 |
| 20260901103904 | 77 | 75 | 4.0 | 16.0 | 0.00 | 0.17 | 0.00 | 71 | 1023.5 |
| 20260901103404 | 77 | 89 | 9.0 | 17.0 | 0.00 | 0.17 | 0.00 | 69 | 1023.5 |
| 20260901102904 | 77 | 79 | 9.0 | 17.0 | 0.00 | 0.17 | 0.00 | 71 | 1023.5 |
| 20260901102404 | 77 | 86 | 10.0 | 20.0 | 0.00 | 0.17 | 0.00 | 71 | 1023.6 |
| 20260901101905 | 77 | 65 | 10.0 | 16.0 | 0.00 | 0.17 | 0.00 | 72 | 1023.6 |
| 20260901101404 | 77 | 86 | 9.0 | 20.0 | 0.00 | 0.17 | 0.00 | 71 | 1023.7 |
| 20260901100905 | 77 | 98 | 9.0 | 20.0 | 0.00 | 0.17 | 0.00 | 71 | 1023.7 |
| 20260901100404 | 76 | 89 | 6.0 | 15.0 | 0.00 | 0.17 | 0.00 | 72 | 1023.7 |
| 20260901095904 | 76 | 79 | 9.0 | 16.0 | 0.00 | 0.17 | 0.00 | 70 | 1023.8 |
| 20260901095404 | 76 | 70 | 10.0 | 18.0 | 0.00 | 0.17 | 0.00 | 72 | 1023.8 |
| 20260901094905 | 76 | 124 | 9.0 | 16.0 | 0.00 | 0.17 | 0.00 | 71 | 1023.7 |
| 20260901093905 | 76 | 92 | 8.0 | 16.0 | 0.00 | 0.17 | 0.00 | 72 | 1023.9 |
| 20260901093404 | 77 | 63 | 9.0 | 17.0 | 0.00 | 0.17 | 0.00 | 70 | 1023.9 |
| 20260901092905 | 77 | 104 | 11.0 | 17.0 | 0.00 | 0.17 | 0.00 | 71 | 1023.9 |
| 20260901092404 | 78 | 102 | 8.0 | 16.0 | 0.00 | 0.17 | 0.00 | 71 | 1024.0 |
| 20260901091904 | 77 | 78 | 10.0 | 17.0 | 0.00 | 0.17 | 0.00 | 70 | 1024.0 |
| 20260901091404 | 78 | 79 | 9.0 | 17.0 | 0.00 | 0.17 | 0.00 | 69 | 1024.1 |
| 20260901090904 | 78 | 73 | 6.0 | 13.0 | 0.00 | 0.17 | 0.00 | 70 | 1024.1 |
| 20260901090405 | 77 | 83 | 9.0 | 15.0 | 0.00 | 0.17 | 0.00 | 71 | 1024.1 |
| 20260901085905 | 76 | 117 | 6.0 | 17.0 | 0.00 | 0.17 | 0.00 | 72 | 1024.1 |
| 20260901085404 | 77 | 98 | 10.0 | 17.0 | 0.00 | 0.17 | 0.00 | 70 | 1024.2 |
| 20260901084904 | 77 | 95 | 9.0 | 16.0 | 0.00 | 0.17 | 0.00 | 70 | 1024.3 |
| 20260901084404 | 76 | 83 | 8.0 | 14.0 | 0.00 | 0.17 | 0.00 | 72 | 1024.3 |
| 20260901083904 | 76 | 90 | 8.0 | 13.0 | 0.00 | 0.17 | 0.00 | 72 | 1024.4 |
| 20260901083404 | 76 | 111 | 6.0 | 17.0 | 0.00 | 0.17 | 0.00 | 74 | 1024.4 |
| 20260901082904 | 76 | 89 | 6.0 | 18.0 | 0.00 | 0.17 | 0.00 | 73 | 1024.4 |
| 20260901082405 | 76 | 57 | 10.0 | 18.0 | 0.00 | 0.17 | 0.00 | 72 | 1024.4 |
| 20260901081404 | 77 | 89 | 9.0 | 18.0 | 0.00 | 0.17 | 0.00 | 70 | 1024.4 |
| 20260901080904 | 77 | 78 | 7.0 | 16.0 | 0.00 | 0.17 | 0.00 | 70 | 1024.6 |
| 20260901080404 | 78 | 74 | 9.0 | 15.0 | 0.00 | 0.17 | 0.00 | 69 | 1024.7 |
| 20260901075404 | 78 | 57 | 7.0 | 16.0 | 0.00 | 0.17 | 0.00 | 68 | 1024.8 |
| 20260901074904 | 77 | 98 | 8.0 | 18.0 | 0.00 | 0.17 | 0.00 | 70 | 1024.8 |
| 20260901074405 | 77 | 79 | 9.0 | 18.0 | 0.00 | 0.17 | 0.00 | 70 | 1024.9 |
| 20260901073905 | 77 | 92 | 9.0 | 18.0 | 0.00 | 0.17 | 0.00 | 70 | 1025.0 |
| 20260901073404 | 77 | 94 | 8.0 | 17.0 | 0.00 | 0.19 | 0.00 | 71 | 1025.1 |
| 20260901072404 | 77 | 83 | 7.0 | 17.0 | 0.00 | 0.19 | 0.00 | 69 | 1025.5 |
| 20260901071905 | 77 | 104 | 10.0 | 22.0 | 0.00 | 0.19 | 0.00 | 68 | 1025.5 |
| 20260901071404 | 77 | 74 | 9.0 | 18.0 | 0.00 | 0.19 | 0.00 | 68 | 1025.5 |
| 20260901070905 | 78 | 66 | 7.0 | 20.0 | 0.00 | 0.19 | 0.00 | 67 | 1025.6 |
| 20260901070404 | 77 | 104 | 9.0 | 18.0 | 0.00 | 0.19 | 0.00 | 68 | 1025.7 |
| 20260901065904 | 78 | 91 | 9.0 | 14.0 | 0.00 | 0.19 | 0.00 | 68 | 1025.7 |
| 20260901065404 | 78 | 73 | 7.0 | 13.0 | 0.00 | 0.19 | 0.00 | 68 | 1025.7 |
| 20260901064904 | 77 | 123 | 7.0 | 17.0 | 0.00 | 0.19 | 0.00 | 67 | 1025.7 |
| 20260901064405 | 77 | 65 | 9.0 | 15.0 | 0.00 | 0.19 | 0.00 | 67 | 1025.7 |
| 20260901063405 | 77 | 76 | 9.0 | 20.0 | 0.00 | 0.19 | 0.00 | 69 | 1025.9 |
| 20260901062905 | 77 | 76 | 10.0 | 20.0 | 0.00 | 0.19 | 0.00 | 68 | 1025.9 |
| 20260901062404 | 77 | 65 | 9.0 | 15.0 | 0.00 | 0.19 | 0.00 | 69 | 1025.9 |
| 20260901061905 | 76 | 114 | 8.0 | 16.0 | 0.00 | 0.19 | 0.00 | 70 | 1025.9 |
| 20260901060904 | 77 | 51 | 7.0 | 20.0 | 0.00 | 0.19 | 0.00 | 67 | 1026.0 |
| 20260901060405 | 77 | 73 | 9.0 | 16.0 | 0.00 | 0.19 | 0.00 | 66 | 1026.0 |
| 20260901055905 | 77 | 85 | 6.0 | 16.0 | 0.00 | 0.19 | 0.00 | 67 | 1026.1 |
| 20260901055405 | 77 | 71 | 10.0 | 16.0 | 0.00 | 0.19 | 0.00 | 66 | 1026.0 |
| 20260901054904 | 77 | 116 | 8.0 | 22.0 | 0.00 | 0.19 | 0.00 | 67 | 1026.0 |
| 20260901054404 | 77 | 80 | 6.0 | 15.0 | 0.00 | 0.19 | 0.00 | 67 | 1026.0 |
| 20260901053405 | 76 | 72 | 7.0 | 16.0 | 0.00 | 0.19 | 0.00 | 68 | 1025.9 |
| 20260901052905 | 77 | 86 | 8.0 | 15.0 | 0.00 | 0.19 | 0.00 | 68 | 1026.0 |
| 20260901052404 | 77 | 73 | 4.0 | 15.0 | 0.00 | 0.19 | 0.00 | 71 | 1026.1 |
| 20260901051904 | 77 | 79 | 7.0 | 16.0 | 0.00 | 0.19 | 0.00 | 70 | 1026.0 |
| 20260901051405 | 77 | 76 | 6.0 | 16.0 | 0.00 | 0.19 | 0.00 | 70 | 1025.9 |
| 20260901050404 | 76 | 95 | 8.0 | 18.0 | 0.00 | 0.19 | 0.00 | 70 | 1025.9 |
| 20260901045404 | 76 | 82 | 7.0 | 12.0 | 0.00 | 0.19 | 0.00 | 71 | 1025.7 |
| 20260901044904 | 75 | 75 | 10.0 | 18.0 | 0.00 | 0.19 | 0.00 | 70 | 1025.7 |
| 20260901044405 | 75 | 86 | 10.0 | 16.0 | 0.00 | 0.19 | 0.00 | 70 | 1025.6 |
| 20260901043905 | 75 | 87 | 7.0 | 13.0 | 0.00 | 0.19 | 0.00 | 71 | 1025.5 |
| 20260901043405 | 75 | 71 | 9.0 | 16.0 | 0.00 | 0.19 | 0.00 | 71 | 1025.6 |
| 20260901042404 | 75 | 87 | 7.0 | 14.0 | 0.00 | 0.19 | 0.00 | 72 | 1025.4 |
| 20260901041904 | 74 | 81 | 7.0 | 15.0 | 0.00 | 0.19 | 0.00 | 73 | 1025.4 |
| 20260901041404 | 74 | 86 | 6.0 | 12.0 | 0.00 | 0.20 | 0.00 | 74 | 1025.3 |
| 20260901040904 | 74 | 116 | 3.0 | 14.0 | 0.00 | 0.22 | 0.00 | 75 | 1025.2 |
| 20260901040404 | 74 | 55 | 6.0 | 14.0 | 0.00 | 0.22 | 0.00 | 73 | 1025.2 |
| 20260901035904 | 74 | 82 | 7.0 | 15.0 | 0.00 | 0.22 | 0.00 | 71 | 1025.0 |
| 20260901035405 | 74 | 68 | 7.0 | 16.0 | 0.00 | 0.22 | 0.00 | 70 | 1025.0 |
| 20260901034905 | 74 | 107 | 6.0 | 12.0 | 0.00 | 0.22 | 0.00 | 70 | 1025.0 |
| 20260901034404 | 74 | 98 | 8.0 | 15.0 | 0.00 | 0.22 | 0.00 | 70 | 1025.0 |
| 20260901033905 | 73 | 68 | 7.0 | 14.0 | 0.00 | 0.22 | 0.00 | 71 | 1024.9 |
| 20260901033404 | 74 | 98 | 6.0 | 12.0 | 0.00 | 0.22 | 0.00 | 72 | 1024.9 |
| 20260901032904 | 73 | 89 | 5.0 | 13.0 | 0.00 | 0.22 | 0.00 | 73 | 1024.9 |
| 20260901032404 | 73 | 80 | 7.0 | 12.0 | 0.00 | 0.22 | 0.00 | 73 | 1024.8 |
| 20260901031904 | 73 | 97 | 6.0 | 12.0 | 0.00 | 0.22 | 0.00 | 73 | 1024.8 |
| 20260901031405 | 73 | 82 | 7.0 | 14.0 | 0.00 | 0.22 | 0.00 | 72 | 1024.7 |
| 20260901030904 | 73 | 81 | 3.0 | 8.0 | 0.00 | 0.22 | 0.00 | 73 | 1024.6 |
| 20260901030405 | 73 | 105 | 3.0 | 9.0 | 0.00 | 0.22 | 0.00 | 73 | 1024.5 |
| 20260901025405 | 72 | 95 | 4.0 | 12.0 | 0.00 | 0.22 | 0.00 | 74 | 1024.3 |
| 20260901024404 | 72 | 101 | 5.0 | 14.0 | 0.00 | 0.22 | 0.00 | 73 | 1024.3 |
| 20260901023905 | 71 | 94 | 6.0 | 13.0 | 0.00 | 0.22 | 0.00 | 73 | 1024.2 |
| 20260901023404 | 71 | 93 | 6.0 | 12.0 | 0.00 | 0.22 | 0.00 | 74 | 1024.2 |
| 20260901022904 | 71 | 79 | 6.0 | 12.0 | 0.00 | 0.22 | 0.00 | 74 | 1024.1 |
| 20260901021904 | 71 | 86 | 5.0 | 12.0 | 0.00 | 0.22 | 0.00 | 75 | 1024.1 |
| 20260901021404 | 71 | 106 | 5.0 | 13.0 | 0.00 | 0.22 | 0.00 | 74 | 1024.0 |
| 20260901020904 | 71 | 113 | 3.0 | 10.0 | 0.00 | 0.22 | 0.00 | 74 | 1023.9 |
| 20260901015904 | 71 | 90 | 4.0 | 10.0 | 0.00 | 0.22 | 0.00 | 74 | 1023.9 |
| 20260901015405 | 71 | 105 | 5.0 | 12.0 | 0.00 | 0.22 | 0.00 | 73 | 1023.8 |
| 20260901014904 | 71 | 98 | 5.0 | 10.0 | 0.00 | 0.22 | 0.00 | 73 | 1023.8 |
| 20260901013904 | 71 | 102 | 2.0 | 10.0 | 0.00 | 0.22 | 0.00 | 75 | 1023.6 |
| 20260901013404 | 71 | 89 | 5.0 | 10.0 | 0.00 | 0.22 | 0.00 | 76 | 1023.6 |
| 20260901012904 | 71 | 106 | 2.0 | 8.0 | 0.00 | 0.22 | 0.00 | 76 | 1023.5 |
| 20260901012405 | 71 | 101 | 5.0 | 10.0 | 0.00 | 0.22 | 0.00 | 75 | 1023.5 |
| 20260901011405 | 71 | 101 | 5.0 | 15.0 | 0.00 | 0.22 | 0.00 | 75 | 1023.4 |
| 20260901010905 | 71 | 99 | 4.0 | 10.0 | 0.00 | 0.22 | 0.00 | 75 | 1023.4 |
| 20260901010404 | 71 | 107 | 5.0 | 14.0 | 0.00 | 0.22 | 0.00 | 74 | 1023.4 |
| 20260901005904 | 71 | 123 | 3.0 | 8.0 | 0.00 | 0.22 | 0.00 | 73 | 1023.3 |
| 20260901005405 | 71 | 105 | 5.0 | 12.0 | 0.00 | 0.22 | 0.00 | 73 | 1023.2 |
| 20260901004904 | 71 | 93 | 4.0 | 12.0 | 0.00 | 0.22 | 0.00 | 74 | 1023.2 |
| 20260901004405 | 71 | 94 | 5.0 | 10.0 | 0.00 | 0.22 | 0.00 | 73 | 1023.2 |
| 20260901003904 | 71 | 80 | 5.0 | 13.0 | 0.00 | 0.22 | 0.00 | 74 | 1023.2 |
| 20260901003405 | 71 | 88 | 5.0 | 12.0 | 0.00 | 0.22 | 0.00 | 75 | 1023.1 |
| 20260901002904 | 71 | 89 | 6.0 | 12.0 | 0.00 | 0.22 | 0.00 | 75 | 1023.1 |
| 20260901002404 | 71 | 82 | 4.0 | 12.0 | 0.00 | 0.22 | 0.00 | 76 | 1023.1 |
| 20260901001904 | 71 | 109 | 4.0 | 10.0 | 0.00 | 0.22 | 0.00 | 76 | 1023.1 |
| 20260901000904 | 71 | 108 | 5.0 | 10.0 | 0.00 | 0.22 | 0.00 | 75 | 1023.1 |
| 20260901000405 | 71 | 94 | 6.0 | 12.0 | 0.00 | 0.22 | 0.00 | 75 | 1023.2 |
| 20260831235904 | 71 | 84 | 5.0 | 12.0 | 0.00 | 0.22 | 0.00 | 74 | 1023.1 |
| 20260831235404 | 71 | 106 | 4.0 | 14.0 | 0.00 | 0.22 | 0.00 | 74 | 1023.2 |
| 20260831234904 | 70 | 99 | 7.0 | 14.0 | 0.00 | 0.22 | 0.00 | 74 | 1023.3 |
| 20260831234404 | 70 | 92 | 4.0 | 14.0 | 0.00 | 0.22 | 0.00 | 75 | 1023.3 |
| 20260831233904 | 70 | 88 | 5.0 | 14.0 | 0.00 | 0.22 | 0.00 | 74 | 1023.3 |
| 20260831233405 | 70 | 94 | 6.0 | 13.0 | 0.00 | 0.22 | 0.00 | 74 | 1023.3 |
| 20260831232904 | 70 | 81 | 7.0 | 15.0 | 0.00 | 0.22 | 0.00 | 75 | 1023.4 |
| 20260831232405 | 70 | 99 | 5.0 | 10.0 | 0.00 | 0.22 | 0.00 | 75 | 1023.4 |
| 20260831231904 | 70 | 112 | 6.0 | 12.0 | 0.00 | 0.22 | 0.00 | 74 | 1023.5 |
| 20260831231404 | 70 | 86 | 6.0 | 12.0 | 0.00 | 0.22 | 0.00 | 73 | 1023.5 |
| 20260831230904 | 70 | 93 | 9.0 | 16.0 | 0.00 | 0.22 | 0.00 | 72 | 1023.6 |
| 20260831230404 | 70 | 76 | 5.0 | 13.0 | 0.00 | 0.22 | 0.00 | 74 | 1023.6 |
| 20260831225904 | 70 | 98 | 7.0 | 14.0 | 0.00 | 0.22 | 0.00 | 74 | 1023.8 |
| 20260831225404 | 70 | 93 | 7.0 | 14.0 | 0.00 | 0.22 | 0.00 | 73 | 1023.8 |
| 20260831224905 | 70 | 87 | 6.0 | 15.0 | 0.00 | 0.22 | 0.00 | 73 | 1023.8 |
| 20260831224405 | 70 | 97 | 6.0 | 12.0 | 0.00 | 0.22 | 0.00 | 75 | 1023.9 |
| 20260831223904 | 70 | 91 | 7.0 | 12.0 | 0.00 | 0.22 | 0.00 | 75 | 1023.9 |
| 20260831223404 | 70 | 98 | 6.0 | 16.0 | 0.00 | 0.22 | 0.00 | 75 | 1024.0 |
| 20260831222404 | 70 | 108 | 5.0 | 10.0 | 0.00 | 0.22 | 0.00 | 77 | 1024.1 |
| 20260831221904 | 70 | 100 | 4.0 | 12.0 | 0.00 | 0.22 | 0.00 | 78 | 1024.1 |
| 20260831221404 | 70 | 105 | 4.0 | 12.0 | 0.00 | 0.22 | 0.00 | 78 | 1024.1 |
| 20260831220905 | 70 | 96 | 6.0 | 13.0 | 0.00 | 0.22 | 0.00 | 80 | 1024.1 |
| 20260831220404 | 69 | 95 | 5.0 | 12.0 | 0.00 | 0.22 | 0.00 | 82 | 1024.2 |
| 20260831215904 | 69 | 116 | 6.0 | 13.0 | 0.00 | 0.22 | 0.00 | 84 | 1024.1 |
| 20260831215404 | 68 | 100 | 5.0 | 12.0 | 0.00 | 0.22 | 0.00 | 86 | 1024.2 |
| 20260831214904 | 68 | 73 | 5.0 | 12.0 | 0.00 | 0.22 | 0.00 | 87 | 1024.3 |
| 20260831213904 | 67 | 92 | 0.0 | 1.0 | 0.00 | 0.22 | 0.00 | 89 | 1024.4 |
| 20260831212404 | 67 | 144 | 5.0 | 10.0 | 0.00 | 0.22 | 0.00 | 89 | 1024.6 |
| 20260831211404 | 67 | 157 | 3.0 | 6.0 | 0.00 | 0.22 | 0.00 | 89 | 1024.8 |
| 20260831210904 | 67 | 127 | 1.0 | 9.0 | 0.00 | 0.22 | 0.00 | 89 | 1024.6 |
| 20260831210404 | 66 | 157 | 2.0 | 8.0 | 0.00 | 0.22 | 0.00 | 89 | 1024.7 |
| 20260831204904 | 66 | 166 | 3.0 | 7.0 | 0.00 | 0.22 | 0.00 | 89 | 1024.9 |
| 20260831204404 | 66 | 167 | 4.0 | 8.0 | 0.00 | 0.22 | 0.00 | 89 | 1024.9 |
| 20260831203404 | 66 | 164 | 5.0 | 10.0 | 0.00 | 0.22 | 0.00 | 88 | 1025.1 |
| 20260831202904 | 66 | 138 | 4.0 | 8.0 | 0.00 | 0.22 | 0.00 | 88 | 1025.2 |
| 20260831202404 | 67 | 166 | 3.0 | 7.0 | 0.00 | 0.22 | 0.00 | 88 | 1025.3 |
| 20260831201904 | 66 | 160 | 4.0 | 7.0 | 0.00 | 0.22 | 0.00 | 88 | 1025.3 |
| 20260831201404 | 66 | 156 | 3.0 | 7.0 | 0.10 | 0.22 | 0.00 | 88 | 1025.3 |
| 20260831200904 | 66 | 133 | 2.0 | 5.0 | 0.10 | 0.22 | 0.00 | 88 | 1025.3 |
| 20260831195904 | 67 | 125 | 2.0 | 6.0 | 0.11 | 0.22 | 0.22 | 88 | 1025.4 |
| 20260831195404 | 67 | 117 | 3.0 | 8.0 | 0.12 | 0.22 | 0.22 | 89 | 1025.4 |
| 20260831194904 | 67 | 107 | 5.0 | 10.0 | 0.15 | 0.22 | 0.22 | 89 | 1025.5 |
| 20260831194404 | 67 | 99 | 2.0 | 9.0 | 0.15 | 0.22 | 0.22 | 89 | 1025.5 |
| 20260831193904 | 67 | 124 | 6.0 | 12.0 | 0.15 | 0.22 | 0.22 | 89 | 1025.6 |
| 20260831193404 | 67 | 132 | 5.0 | 12.0 | 0.15 | 0.22 | 0.22 | 89 | 1025.6 |
| 20260831192904 | 67 | 129 | 7.0 | 16.0 | 0.17 | 0.22 | 0.22 | 89 | 1025.7 |
| 20260831192404 | 66 | 133 | 9.0 | 20.0 | 0.17 | 0.22 | 0.22 | 89 | 1025.8 |
| 20260831191904 | 66 | 124 | 10.0 | 22.0 | 0.17 | 0.22 | 0.22 | 88 | 1025.8 |
| 20260831191404 | 67 | 131 | 4.0 | 9.0 | 0.10 | 0.16 | 0.16 | 88 | 1025.9 |
| 20260831190904 | 67 | 139 | 2.0 | 8.0 | 0.06 | 0.12 | 0.12 | 88 | 1025.6 |